Lapse_Rate
4.6 4.8 4.3 4.0 3.9 4.8 4.9 4.0 2.5 2.1 1.6 1.0 1.4 1.6 2.6 3.3 4.1 4.6 4.1 4.4 4.6 4.9 5.0 6.1 7.0 6.8 6.6 6.5 6.0 5.7 6.6 5.1
4.1 4.2 4.1 3.6 3.6 4.9 5.2 3.7 2.7 2.2 0.9 0.5 0.9 1.3 2.4 2.6 3.4 3.1 3.3 3.7 4.3 5.3 6.8 7.6 7.2 6.8 6.5 6.5 6.7 7.1 7.7 8.1
5.5 4.7 4.2 3.8 4.0 4.9 5.0 4.0 3.3 2.3 1.5 1.5 1.0 1.6 2.1 2.6 2.2 2.2 2.7 3.1 4.9 7.3 7.8 7.3 6.7 5.6 5.0 5.3 5.6 5.9 6.9 7.5
6.5 6.2 4.7 4.0 4.1 4.1 4.9 3.8 2.9 1.9 1.5 1.4 1.4 1.7 1.8 1.2 1.3 2.3 3.2 4.4 6.9 7.6 7.4 7.2 6.2 5.8 5.5 5.2 5.2 6.1 6.5 7.1
6.7 5.9 4.8 4.2 4.2 4.4 4.9 3.9 3.4 2.5 1.4 1.2 0.4 0.7 1.1 2.3 2.6 3.1 3.7 5.0 6.1 7.0 7.0 6.1 5.4 5.1 5.2 4.9 5.2 5.1 5.6 6.0
5.4 5.1 4.7 4.5 4.5 4.6 5.1 4.5 3.9 2.6 1.6 1.0 0.3 0.7 1.5 1.9 1.6 1.6 2.4 3.9 5.4 5.1 5.4 4.8 4.6 4.7 4.6 4.7 4.7 5.3 6.0 6.1
5.9 5.6 5.5 4.8 4.6 4.8 4.9 4.9 4.2 2.9 1.6 0.9 0.5 0.5 1.2 0.7 0.7 0.8 1.6 2.6 4.3 4.7 4.7 4.4 4.7 4.6 4.2 4.1 4.4 4.5 4.8 4.9
5.1 5.4 4.5 4.9 4.5 4.5 5.2 4.8 4.4 3.5 1.5 0.9 0.6 1.4 1.0 0.5 0.5 0.4 0.6 1.4 2.3 3.4 3.8 4.3 4.7 4.5 4.5 4.4 4.3 3.9 3.7 3.3
4.3 3.8 3.6 4.0 4.0 3.4 2.7 3.4 4.2 3.5 1.7 1.1 0.8 1.2 0.5 1.1 0.8 0.5 0.7 1.0 2.1 3.0 2.6 3.1 4.2 4.5 4.6 4.6 4.3 4.2 3.9 2.9
3.4 3.3 3.2 3.1 2.9 1.9 1.1 1.9 2.0 2.5 1.6 1.0 0.4 0.7 0.9 1.2 0.8 0.6 0.3 0.7 1.9 1.4 2.1 2.5 3.2 3.6 4.3 4.8 4.3 3.8 4.4 3.3
3.9 2.9 2.2 2.8 2.7 1.7 0.5 0.2 0.3 0.8 1.2 0.9 0.8 1.1 1.7 1.7 1.4 0.7 0.9 0.4 0.9 0.6 0.9 1.4 1.6 2.5 2.9 3.5 3.6 3.7 3.8 4.0
3.0 2.5 2.2 2.8 2.2 1.9 0.5 -0.4 -1.0 -0.1 1.2 1.5 1.3 1.2 2.2 2.5 2.4 2.1 1.7 1.2 0.8 1.2 1.0 0.3 0.8 1.8 1.7 2.2 2.3 2.4 2.6 3.0
1.8 1.3 1.7 0.8 2.0 2.7 1.9 1.4 1.1 0.1 -0.2 2.0 2.6 1.5 1.3 2.8 3.1 3.4 2.7 1.3 1.0 1.7 0.8 0.1 1.2 1.8 1.4 0.6 0.9 0.5 1.0 1.1
1.8 1.7 0.6 -0.4 1.5 0.7 1.4 2.0 2.1 2.1 2.7 1.4 2.7 3.9 2.3 1.0 2.3 4.1 2.7 -0.2 -0.7 0.7 0.1 -0.6 0.2 0.7 1.5 1.1 0.5 0.5 0.3 0.5
3.0 1.9 1.3 -0.3 1.3 2.1 1.9 2.1 2.1 3.3 3.9 4.8 2.9 3.4 5.0 5.6 3.8 4.9 3.9 3.0 -0.5 -0.1 -0.6 -0.6 -0.7 0.6 1.0 1.6 0.3 -0.0 -0.2 -0.3
4.4 4.0 2.9 2.2 2.7 3.1 3.1 3.6 4.1 5.2 4.4 5.3 5.6 6.3 6.5 6.6 6.1 5.5 4.9 4.1 2.9 1.0 -0.3 -0.8 -0.7 1.7 4.1 2.6 1.5 0.2 -0.1 -0.6
5.6 5.6 4.5 4.0 4.1 4.1 5.2 5.6 5.8 6.3 6.6 6.7 7.0 7.3 7.0 6.0 5.4 4.8 4.1 3.5 2.7 2.0 1.2 1.1 0.4 3.2 8.0 4.7 2.6 1.1 0.6 0.8
6.3 6.0 5.3 5.2 5.6 6.8 6.7 7.2 7.2 7.1 7.0 7.7 7.6 7.5 7.1 6.1 5.9 5.0 3.6 3.2 2.6 2.0 1.7 1.4 1.8 2.9 4.2 4.7 3.5 2.3 1.5 1.6
6.0 5.1 5.2 5.7 6.1 6.3 6.5 6.9 6.6 6.5 6.6 7.0 7.0 6.2 6.0 5.8 5.3 4.3 3.8 3.3 2.8 2.5 2.4 2.2 2.2 3.3 3.4 3.8 3.4 2.9 2.2 2.7
Wind_Speed
11 10 9 8 8 7 7 5 7 7 6 6 7 6 10 16 14 16 19 16 18 14 12 13 14 8 8 9 11 10 10 9
11 9 8 9 8 8 8 9 8 6 6 6 6 6 6 7 14 18 18 18 17 15 11 11 12 9 10 11 10 12 9 10
11 9 8 8 8 8 8 7 8 7 7 6 4 4 6 7 13 14 17 18 17 16 13 9 10 9 11 10 10 9 8 8
12 10 8 9 8 8 7 8 9 8 8 5 4 4 6 7 8 8 14 18 17 17 16 13 10 8 8 10 10 12 9 8
12 10 9 9 7 7 7 9 8 7 7 7 7 6 6 7 7 8 10 17 16 18 17 16 12 8 9 9 9 9 9 9
11 10 10 8 7 6 7 8 8 7 8 8 6 7 6 6 6 9 10 13 16 17 17 15 10 8 10 11 11 10 7 8
11 9 9 8 7 7 7 8 8 8 9 9 9 8 7 6 7 7 7 8 9 17 17 16 15 11 11 10 10 12 9 8
8 8 8 8 8 8 7 8 7 7 8 8 7 7 6 5 6 6 8 8 8 12 16 13 10 16 14 11 11 11 10 9
8 9 8 8 9 9 8 8 7 7 7 7 6 6 4 6 7 6 5 6 8 15 15 17 17 20 15 13 9 9 11 9
10 9 7 7 8 8 8 6 6 7 8 6 6 6 7 6 6 6 5 6 8 13 16 13 16 18 17 12 9 12 11 12
8 9 7 6 6 7 7 6 6 5 7 6 5 5 5 5 4 5 8 7 10 10 10 11 13 16 17 13 11 13 13 11
8 9 6 5 3 6 6 5 5 4 5 4 5 4 4 4 4 5 5 8 10 9 9 11 14 13 13 13 13 15 16 15
7 7 7 5 6 5 5 5 6 3 1 3 3 2 3 4 4 4 5 6 11 9 11 11 10 13 12 14 14 14 16 17
8 5 5 5 5 3 3 3 6 5 2 1 0 2 2 3 2 2 4 3 4 10 10 12 10 7 12 12 12 13 14 15
9 6 5 4 4 4 4 2 2 6 4 1 3 2 3 1 4 5 4 5 4 8 9 11 11 7 6 11 13 12 12 13
11 9 7 6 6 6 6 4 4 5 6 4 3 5 6 6 7 8 8 9 7 8 9 10 9 10 9 9 11 13 14 15
13 12 11 10 9 8 8 7 6 4 5 5 5 5 6 6 6 8 8 9 9 10 12 12 12 10 20 21 14 11 13 15
14 13 12 10 10 7 7 6 7 6 6 5 5 6 6 6 8 8 8 8 8 10 10 11 13 13 25 22 21 11 12 13
12 10 9 8 7 7 7 6 7 7 6 6 6 7 7 6 6 7 6 6 7 8 9 10 11 13 25 23 21 10 11 13
Wind_Direction
111 96 83 84 74 64 63 49 32 25 11 30 32 18 16 40 28 36 24 17 15 3 6 351 346 334 329 326 317 313 304 303
111 108 99 96 71 62 49 52 29 23 19 28 27 24 34 33 28 26 15 16 12 360 1 350 343 336 325 317 316 313 313 312
120 115 105 96 86 74 65 68 42 32 35 24 20 18 40 32 22 15 15 10 5 3 357 352 342 328 321 318 315 309 301 297
127 120 111 97 83 75 79 74 57 42 38 25 18 28 37 26 17 16 8 11 4 6 357 351 342 331 319 317 319 314 310 308
121 115 101 100 96 76 71 78 61 58 46 38 34 38 32 25 19 9 6 8 7 8 358 354 343 336 334 324 322 307 304 305
109 110 110 111 100 94 76 90 71 59 53 46 35 37 39 23 15 12 9 6 10 6 6 355 352 345 335 329 325 322 306 290
110 113 114 101 87 76 65 84 75 70 65 51 44 36 31 21 17 13 9 5 9 7 6 3 1 353 346 343 340 345 334 321
113 116 98 97 85 60 65 55 73 71 74 60 52 44 29 18 21 11 14 7 11 10 6 5 5 357 358 355 356 346 350 342
110 104 99 93 88 72 65 47 44 65 76 67 49 49 29 31 22 12 12 10 12 13 6 5 9 3 360 8 3 359 3 356
117 112 101 85 93 86 86 65 39 63 70 57 38 49 50 43 26 23 12 9 19 19 13 10 10 13 8 9 11 9 9 11
115 98 91 80 76 97 83 72 59 45 79 61 52 53 50 49 35 29 27 21 20 25 17 16 19 19 14 11 15 12 12 14
130 112 105 99 83 114 110 90 76 57 71 97 71 43 44 53 38 34 37 36 34 24 17 25 29 20 17 17 15 17 17 15
107 121 127 107 95 105 126 138 105 90 41 70 122 76 351 51 54 15 54 48 41 24 23 29 29 30 19 19 19 18 19 15
140 128 140 135 144 115 129 121 137 126 132 189 125 162 293 336 71 303 92 69 34 31 28 25 15 26 34 25 17 22 25 19
157 149 161 146 140 151 163 193 158 158 179 129 47 81 203 335 28 62 70 85 59 42 31 24 13 12 41 35 27 22 25 25
164 165 164 164 171 183 160 182 179 144 165 180 165 78 78 73 61 60 58 51 53 50 40 29 11 21 50 44 37 27 28 29
164 164 169 178 183 188 184 182 171 155 124 123 109 104 86 77 73 67 64 58 46 49 41 36 31 24 43 48 49 40 31 34
161 164 169 175 184 177 145 143 135 127 120 104 91 81 82 86 82 78 71 65 53 46 49 39 38 33 33 42 48 44 39 32
155 156 161 160 140 133 137 125 108 99 90 83 79 80 74 65 82 91 85 84 73 56 49 43 41 41 40 38 41 41 40 34